sat.trackr.live / text

‹ back to catalog

STARLINK-32843

NORAD 62814 · 2025-018J

PAYLOAD ACTIVE UNKNOWN

§ Identity

Operator
Country
US
Launch date
2025-01-24
Launch site
AFWTR
Launch vehicle
Mass (kg)
RCS (m²)

Purposes: comms

External: N2YO · Heavens-Above · Gunter

§ Orbital elements

Epoch: 2026-05-25T04:36:00.014112Z

Period
94.01 min
Inclination
53.1608°
Eccentricity
0.0000536
Mean motion
15.31721849 rev/d
Perigee alt
470.3 km
Apogee alt
471.0 km
Semi-major
6,848.8 km
B*
4.5451e-4
RAAN
314.0794°
Arg perigee
96.9010°
Mean anomaly
263.2052°
Rev number
7,488

§ Raw data

STARLINK-328431 62814U 25018J   26145.19166683  .00013775  00000+0  45451-3 0  99992 62814  53.1608 314.0794 0000536  96.9010 263.2052 15.31721849 74881

JSON: /api/v1/satellites/62814 · /tle

For live sub-satellite position, see the globe view (requires WebGL).

§ Visibility from observer

Set your observer location to see the next 7 days of passes ≥ 10°. The values pass through the URL so the page stays shareable.

No JS? Fill the form by hand. The geolocation button needs JavaScript.